Hourly Data Report for March 22, 2018

MIRAMICHI RCS
NEW BRUNSWICK

47°00'34.000" N
65°27'54.000" W
33.00 m
8100989
71744
ACQ

Download Data

Hourly Data (March 2018)
Hourly Data Report for March 22, 2018
TIME
LST
Temp Definition
°C
Dew Point Definition
°C
Rel Hum Definition
%
Precip. Amount Definition
mm

Wind Dir Definition
10's deg

Wind Spd Definition
km/h
Visibility Definition
km
Stn Press Definition
kPa
Hmdx Definition


Wind Chill Definition


Weather Definition


00:00 -3.6 -6.1 82 0.0 1 9   101.22   -7 LegendNANA
01:00 -3.6 -6.2 82 0.0 3 11   101.16   -8 LegendNANA
02:00 -3.7 -7.1 78 0.0 3 13   101.10   -9 LegendNANA
03:00 -3.7 -6.6 81 0.0 3 13   101.12   -9 LegendNANA
04:00 -3.3 -5.8 83 0.0 4 15   101.12   -8 LegendNANA
05:00 -3.2 -5.5 84 0.0 4 13   101.08   -8 LegendNANA
06:00 -2.2 -4.4 85 0.0 5 24   100.91   -9 LegendNANA
07:00 -1.8 -4.1 84 0.0 5 28   100.94   -9 LegendNANA
08:00 -1.4 -3.7 84 0.0 6 30   100.97   -8 LegendNANA
09:00 -0.8 -3.3 83 0.0 5 30   100.85   -8 LegendNANA
10:00 -0.4 -3.5 79 0.0 5 30   100.78   -7 LegendNANA
11:00 0.2 -3.5 76 0.0 4 26   100.66     LegendNANA
12:00 0.7 -3.7 73 0.0 4 28   100.58     LegendNANA
13:00 0.3 -3.9 73 0.0 4 32   100.58     LegendNANA
14:00 -0.3 -4.3 74 0.0 4 32   100.56   -7 LegendNANA
15:00 -0.9 -4.6 76 0.0 4 37   100.36   -8 LegendNANA
16:00 -1.0 -4.5 77 0.0 4 33   100.29   -8 LegendNANA
17:00 -1.9 -3.2 91 0.0 3 27   100.21   -9 LegendNANA
18:00 -1.8 -3.0 91 0.9 3 24   100.25   -8 LegendNANA
19:00 -1.9 -3.5 89 0.7 2 25   100.22   -8 LegendNANA
20:00 -1.6 -3.6 87 0.3 2 24   100.18   -8 LegendNANA
21:00 -1.5 -3.7 85 0.0 2 23   100.13   -8 LegendNANA
22:00 -1.4 -3.5 85 0.0 2 24   100.10   -8 LegendNANA
23:00 -1.5 -2.8 90 0.2 2 22   100.09   -7 LegendNANA

Notes on Data Quality.

Legend

  • E = Estimated
  • M = Missing
  • NA = Not Available*
  • [empty] = Indicates an unobserved value
Date modified: